KUIPER-00090

导读 | 豆包

KUIPER-00090是美国亚马逊柯伊伯(Project Kuiper)低轨互联网星座中的一颗卫星,于2025年7月16日由美国发射升空。该卫星是柯伊伯项目大规模组网的组成部分,旨在构建全球覆盖的卫星互联网系统,为偏远地区提供高速网络接入服务,进一步推动全球互联基础设施建设,是低轨卫星通信星座部署进程中的一颗节点卫星。

基本信息
目录编号:
64835
目录名称:
KUIPER-00090
国际标识:
2025-151V
轨道中心:
EARTH
卫星名称:
KUIPER-00090
卫星全名:
KUIPER-00090
卫星状态:
在轨 (已飞行230 天)
发射日期:
2025-07-16 UTC
国别 :
美国 (US)
星等 :
--
轨道信息
数据来源 国际轨道数据
星历时间: 2026-03-02T23:50:16+0800
9小时前
查看轨道信息
半长轴: 7007.654km
偏心率: 0.0001207
轨道倾角: 51.898°
近地点辐角 91.567°
升交点赤经 309.211°
平近点角 268.544°
近地点: 628.671km
远地点: 630.363km
周期: 97.301分钟
每日圈数: 14.799391
详细信息
使用方式:
暂无
2D轨道图
3D轨道图
轨道高度分析图
轨道倾角分析图
轨道综合分析图
查看轨道综合分析图